ACA860 CYVR-EGLL

Flight info

Callsign ACA860
Flight time N/A
Altitude 32000
Route DOLLR DCT GARRE DCT SEATN/N0490F330 DCT PARQE/N0486F340 DCT YQU/N0488F330 DCT 60N115W 64N110W/N0484F350 69N100W 72N090W 7330N08000W/M084F350 DCT DAPAK DCT 73N060W 71N040W 68N030W/M084F370 6330N02000W DCT ERAKA/N0487F370 DCT ETSOM DCT AKOMU DCT VAMEB DCT NUGRA
Aircraft B77W/H-SDE1E2E3FGHIJ2J3J4J5M1RWXY/LB1D1

Departure

Time 2026-05-07 03:26
Airport Vancouver International Airport (CYVR)

Arrival

Time N/A
Airport London Heathrow Airport (EGLL)
Time Latitude Longitude Altitude Speed Heading
2026-05-07 02:35 49.19774 -123.18082 32 ft 0 kts 40°
2026-05-07 03:11 49.19772 -123.18085 29 ft 2 kts 40°
2026-05-07 03:11 49.19752 -123.18111 28 ft 4 kts 40°
2026-05-07 03:12 49.19736 -123.18132 28 ft 4 kts 38°
2026-05-07 03:12 49.19722 -123.18145 29 ft 4 kts 355°
2026-05-07 03:12 49.19711 -123.18139 27 ft 3 kts 310°
2026-05-07 03:12 49.19694 -123.18109 28 ft 4 kts 310°
2026-05-07 03:13 49.19689 -123.18101 28 ft 0 kts 310°
2026-05-07 03:17 49.19689 -123.18102 28 ft 0 kts 310°
2026-05-07 03:17 49.19697 -123.18115 28 ft 6 kts 310°
2026-05-07 03:18 49.19741 -123.18231 29 ft 17 kts 288°
2026-05-07 03:18 49.19765 -123.18411 29 ft 16 kts 279°
2026-05-07 03:18 49.19763 -123.18568 29 ft 13 kts 240°
2026-05-07 03:18 49.19751 -123.18707 29 ft 13 kts 279°
2026-05-07 03:19 49.19767 -123.18846 29 ft 13 kts 279°
2026-05-07 03:19 49.19782 -123.18988 29 ft 13 kts 279°
2026-05-07 03:19 49.19779 -123.19082 29 ft 8 kts 241°
2026-05-07 03:19 49.19716 -123.19140 29 ft 17 kts 194°
2026-05-07 03:20 49.19584 -123.19179 29 ft 20 kts 189°
2026-05-07 03:20 49.19449 -123.19215 29 ft 20 kts 189°
2026-05-07 03:20 49.19356 -123.19251 29 ft 9 kts 212°
2026-05-07 03:20 49.19322 -123.19345 29 ft 17 kts 255°
2026-05-07 03:21 49.19291 -123.19576 30 ft 23 kts 259°
2026-05-07 03:21 49.19261 -123.19818 30 ft 23 kts 259°
2026-05-07 03:21 49.19227 -123.20087 30 ft 30 kts 259°
2026-05-07 03:21 49.19197 -123.20335 30 ft 9 kts 259°
2026-05-07 03:22 49.19194 -123.20352 30 ft 6 kts 255°
2026-05-07 03:22 49.19153 -123.20412 30 ft 9 kts 206°
2026-05-07 03:22 49.19092 -123.20438 30 ft 0 kts 190°
2026-05-07 03:24 49.19086 -123.20440 30 ft 3 kts 190°
2026-05-07 03:24 49.19030 -123.20446 30 ft 12 kts 169°
2026-05-07 03:24 49.18971 -123.20365 30 ft 12 kts 118°
2026-05-07 03:24 49.18948 -123.20243 30 ft 13 kts 100°
2026-05-07 03:25 49.18913 -123.19942 30 ft 54 kts 99°
2026-05-07 03:25 49.18806 -123.18997 30 ft 124 kts 100°
2026-05-07 03:25 49.18630 -123.17425 30 ft 179 kts 99°
2026-05-07 03:25 49.18428 -123.15423 369 ft 191 kts 97°
2026-05-07 03:26 49.18223 -123.13496 1051 ft 191 kts 105°
2026-05-07 03:26 49.17733 -123.11698 1455 ft 201 kts 126°
2026-05-07 03:26 49.16615 -123.10312 1513 ft 226 kts 161°